Total_Precipitation_Accumulation
0.10 0.11 0.17 0.23 0.32 0.43 0.48 0.56 0.62 0.72 0.85 0.95 1.09 1.05 0.98 0.98 1.00 0.98 0.97 0.95 1.02 1.04 0.96 0.90 0.90 0.90 0.83 0.74 0.70 0.68 0.65 0.59 0.52 0.54 0.58 0.54 0.43 0.35 0.30 0.25 0.21 0.17 0.14
0.10 0.12 0.18 0.23 0.29 0.43 0.49 0.55 0.65 0.75 0.82 0.89 0.97 1.03 1.00 0.99 1.02 1.01 0.99 0.97 0.96 1.00 1.03 0.95 0.86 0.81 0.80 0.78 0.71 0.70 0.69 0.67 0.60 0.57 0.62 0.61 0.57 0.44 0.31 0.25 0.22 0.19 0.16
0.13 0.14 0.21 0.27 0.31 0.41 0.49 0.55 0.66 0.74 0.81 0.96 1.05 1.12 1.22 1.19 1.17 1.16 1.06 0.98 0.95 0.93 0.96 0.96 0.91 0.83 0.75 0.73 0.70 0.64 0.64 0.65 0.59 0.50 0.61 0.68 0.55 0.40 0.31 0.24 0.20 0.18 0.17
0.14 0.15 0.20 0.29 0.33 0.39 0.50 0.58 0.69 0.75 0.79 0.98 1.13 1.08 1.16 1.13 1.04 0.99 1.01 0.98 0.94 0.91 0.89 0.89 0.89 0.89 0.80 0.69 0.65 0.63 0.62 0.65 0.65 0.54 0.46 0.49 0.49 0.50 0.37 0.25 0.23 0.21 0.19
0.13 0.13 0.14 0.20 0.29 0.36 0.47 0.58 0.72 0.81 0.83 0.91 1.09 1.12 1.06 1.01 0.98 1.02 1.01 1.01 1.00 0.96 0.90 0.86 0.85 0.83 0.81 0.72 0.63 0.61 0.62 0.65 0.66 0.61 0.51 0.43 0.35 0.35 0.45 0.32 0.24 0.26 0.24
0.12 0.12 0.11 0.13 0.25 0.36 0.46 0.55 0.67 0.80 0.86 0.85 0.97 1.11 1.07 1.01 0.97 1.03 1.07 1.05 1.04 1.01 0.96 0.87 0.83 0.78 0.73 0.70 0.63 0.56 0.58 0.60 0.60 0.58 0.54 0.53 0.49 0.39 0.41 0.39 0.26 0.24 0.23
0.13 0.14 0.12 0.13 0.20 0.32 0.43 0.52 0.62 0.71 0.78 0.81 0.85 0.93 1.05 1.02 0.94 0.89 0.95 1.03 1.06 1.00 0.94 0.90 0.82 0.76 0.70 0.68 0.67 0.63 0.58 0.57 0.58 0.57 0.54 0.51 0.46 0.42 0.45 0.51 0.41 0.33 0.27
0.09 0.11 0.13 0.15 0.18 0.23 0.30 0.42 0.53 0.64 0.76 0.82 0.81 0.85 0.94 1.06 0.97 0.90 0.87 0.91 0.95 0.91 0.84 0.84 0.82 0.75 0.69 0.69 0.71 0.69 0.63 0.59 0.59 0.55 0.54 0.55 0.49 0.49 0.55 0.61 0.66 0.61 0.40
0.08 0.10 0.12 0.15 0.17 0.22 0.25 0.36 0.44 0.57 0.72 0.84 0.85 0.84 0.87 0.95 0.98 0.90 0.86 0.87 0.87 0.87 0.86 0.84 0.83 0.79 0.77 0.76 0.76 0.75 0.67 0.63 0.62 0.61 0.60 0.62 0.57 0.56 0.55 0.58 0.69 0.88 0.76
0.09 0.11 0.12 0.15 0.17 0.20 0.23 0.31 0.39 0.47 0.57 0.73 0.88 0.88 0.82 0.82 0.90 0.92 0.91 0.86 0.85 0.86 0.87 0.90 0.90 0.85 0.80 0.82 0.84 0.79 0.71 0.69 0.67 0.67 0.68 0.65 0.61 0.63 0.65 0.66 0.65 0.72 0.82
0.09 0.10 0.13 0.15 0.17 0.21 0.26 0.32 0.39 0.44 0.49 0.59 0.75 0.86 0.85 0.85 0.90 0.94 0.93 0.90 0.85 0.85 0.84 0.84 0.91 0.93 0.87 0.81 0.86 0.85 0.78 0.77 0.72 0.70 0.71 0.68 0.65 0.73 0.76 0.79 0.76 0.70 0.72
0.07 0.07 0.09 0.15 0.18 0.23 0.28 0.33 0.41 0.43 0.45 0.51 0.62 0.74 0.83 0.86 0.91 0.91 0.96 1.00 0.98 0.88 0.80 0.79 0.85 0.92 0.91 0.85 0.83 0.83 0.80 0.81 0.77 0.74 0.76 0.75 0.72 0.75 0.79 0.87 0.86 0.76 0.68
0.05 0.06 0.08 0.13 0.18 0.21 0.25 0.33 0.41 0.41 0.41 0.50 0.60 0.70 0.80 0.82 0.84 0.82 0.88 1.05 1.15 1.08 0.92 0.83 0.84 0.93 0.99 0.93 0.84 0.84 0.83 0.79 0.76 0.74 0.79 0.82 0.83 0.77 0.77 0.88 0.93 0.85 0.77
0.07 0.07 0.10 0.12 0.15 0.17 0.21 0.28 0.38 0.42 0.43 0.47 0.57 0.65 0.74 0.76 0.76 0.77 0.78 0.92 1.08 1.16 1.07 0.93 0.87 0.94 1.06 1.08 1.05 1.04 0.95 0.86 0.76 0.67 0.69 0.79 0.92 0.93 0.94 0.98 0.96 0.97 0.98
0.08 0.08 0.10 0.13 0.16 0.18 0.21 0.25 0.32 0.40 0.45 0.46 0.54 0.56 0.65 0.73 0.73 0.72 0.76 0.85 0.97 1.05 1.06 1.02 0.95 0.95 1.15 1.37 1.52 1.41 1.12 0.92 0.81 0.67 0.63 0.73 0.96 1.13 1.30 1.35 1.23 1.23 1.32
0.09 0.09 0.11 0.14 0.18 0.23 0.27 0.30 0.33 0.37 0.44 0.45 0.51 0.53 0.61 0.71 0.74 0.69 0.73 0.83 0.94 0.99 0.99 0.99 0.96 0.95 1.12 1.46 1.68 1.36 1.02 0.89 0.82 0.74 0.65 0.71 0.95 1.09 1.19 1.32 1.30 1.32 1.48
0.11 0.10 0.12 0.16 0.20 0.26 0.27 0.33 0.34 0.38 0.44 0.45 0.47 0.54 0.61 0.64 0.72 0.72 0.74 0.83 0.92 0.94 0.94 0.91 0.89 0.87 0.94 1.27 1.50 1.26 0.95 0.85 0.80 0.76 0.70 0.72 0.83 0.95 0.97 1.04 1.06 1.08 1.24
0.15 0.13 0.14 0.18 0.19 0.24 0.24 0.29 0.32 0.41 0.47 0.48 0.45 0.51 0.58 0.60 0.71 0.76 0.76 0.86 0.93 0.89 0.89 0.87 0.84 0.80 0.84 1.14 1.40 1.23 0.97 0.87 0.80 0.79 0.72 0.67 0.72 0.84 0.97 1.03 0.98 0.91 0.98
0.18 0.17 0.17 0.18 0.18 0.22 0.23 0.23 0.28 0.38 0.47 0.50 0.44 0.47 0.55 0.60 0.69 0.75 0.81 0.88 0.94 0.88 0.85 0.82 0.83 0.78 0.77 1.02 1.40 1.30 1.00 0.92 0.84 0.82 0.76 0.68 0.64 0.81 0.94 0.91 0.85 0.79 0.84
0.17 0.18 0.17 0.17 0.19 0.22 0.24 0.22 0.25 0.32 0.43 0.50 0.42 0.44 0.50 0.53 0.61 0.69 0.79 0.85 0.84 0.82 0.83 0.79 0.79 0.77 0.71 0.85 1.28 1.41 1.05 0.94 0.87 0.86 0.80 0.84 0.82 0.88 0.89 0.80 0.81 0.88 0.81
0.17 0.16 0.16 0.18 0.20 0.23 0.24 0.24 0.26 0.28 0.37 0.49 0.44 0.46 0.49 0.52 0.59 0.68 0.70 0.76 0.80 0.78 0.82 0.80 0.77 0.75 0.73 0.76 1.04 1.40 1.15 0.98 0.88 0.88 0.86 0.80 0.92 0.91 0.86 0.82 0.80 0.93 0.86
0.17 0.17 0.16 0.17 0.18 0.21 0.24 0.26 0.29 0.29 0.36 0.44 0.45 0.50 0.54 0.56 0.60 0.65 0.62 0.65 0.75 0.78 0.80 0.84 0.86 0.83 0.77 0.79 0.99 1.20 1.17 1.05 0.86 0.84 0.77 0.74 0.87 0.89 0.90 0.85 0.86 0.88 0.86
0.18 0.18 0.18 0.16 0.17 0.19 0.23 0.29 0.33 0.33 0.38 0.42 0.44 0.49 0.56 0.59 0.61 0.60 0.59 0.63 0.69 0.76 0.80 0.83 0.84 0.86 0.81 0.83 1.02 1.02 1.04 1.03 0.92 0.91 0.94 0.88 0.93 0.94 0.84 0.79 0.81 0.78 0.72
0.19 0.20 0.20 0.18 0.18 0.18 0.21 0.28 0.35 0.34 0.38 0.41 0.42 0.47 0.52 0.58 0.62 0.58 0.55 0.56 0.63 0.73 0.75 0.78 0.77 0.76 0.78 0.90 1.02 0.93 0.91 0.98 1.03 1.06 1.03 1.00 0.99 0.94 0.85 0.79 0.69 0.61 0.61
0.20 0.20 0.21 0.20 0.20 0.20 0.23 0.30 0.34 0.34 0.38 0.38 0.38 0.42 0.44 0.55 0.65 0.64 0.58 0.56 0.55 0.68 0.76 0.74 0.73 0.77 0.87 1.00 1.07 0.96 0.93 0.99 1.06 1.13 1.15 1.07 1.02 1.00 0.90 0.75 0.63 0.57 0.59
0.22 0.21 0.21 0.21 0.21 0.23 0.27 0.33 0.35 0.35 0.35 0.36 0.37 0.39 0.43 0.51 0.59 0.63 0.64 0.70 0.67 0.68 0.67 0.66 0.71 0.71 0.85 0.95 0.94 0.93 0.96 1.03 1.09 1.13 1.12 0.96 0.82 0.77 0.73 0.67 0.60 0.55 0.51